Litchfield, MN

3:30 AM CST on February 11, 2016 (GMT -0600)
Litchfield Municipal

Weather History for KLJF - January, 2012

Change the Weather History Date:

Friday, January 13, 2012

  Actual Average Record
Temperature  
Mean Temperature 6 °F -  
Max Temperature 10 °F 21 °F 48 °F (1987)
Min Temperature 1 °F 2 °F -23 °F (2009)
Degree Days  
Heating Degree Days 60    
Moisture  
Dew Point 1 °F    
Average Humidity 81    
Maximum Humidity 92    
Minimum Humidity 67    
Precipitation  
Precipitation 0.00 in - - ()
Sea Level Pressure  
Sea Level Pressure 29.96 in    
Wind  
Wind Speed 8 mph (NW)    
Max Wind Speed 13 mph    
Max Gust Speed 18 mph    
Visibility 10 miles    
Events      
Averages and records for this station are not official NWS values.
T = Trace of Precipitation, MM = Missing Value Source: NWS Daily Summary

Daily Weather History Graph

Daily Weather History Graph

Search for Another Location

Airport or City:

Trip Planner

Search our weather history database for the weather conditions in past years. The results will help you decide how hot, cold, wet, or windy it might be!

Date:

Astronomy

Jan. 13, 2012 Rise Set
Actual Time 7:54 AM CST 4:59 PM CST
Civil Twilight 7:21 AM CST 5:32 PM CST
Nautical Twilight 6:44 AM CST 6:08 PM CST
Astronomical Twilight 6:09 AM CST 6:44 PM CST
Moon 10:30 PM CST (1/13) 9:53 AM CST (1/13)
Length of Visible Light 10h 11m
Length of Day
9h 05m
Waning Gibbous, 78% of the Moon is Illuminated
Jan 13
Waning Gibbous
Jan 16
Last Quarter
Jan 23
New
Jan 30
First Quarter
Feb 7
Full

Hourly Weather History & Observations

Time (CST) Temp. Windchill Dew Point Humidity Pressure Visibility Wind Dir Wind Speed Gust Speed Precip Events Conditions
12:13 AM 6.8 °F -9.3 °F 3.2 °F 85% 29.90 in 10.0 mi NW 12.7 mph 18.4 mph N/A   Mostly Cloudy
12:33 AM 6.8 °F -7.8 °F 3.2 °F 85% 29.91 in 10.0 mi NW 10.4 mph 17.3 mph N/A   Mostly Cloudy
12:53 AM 6.8 °F -7.8 °F 1.4 °F 79% 29.91 in 10.0 mi NW 10.4 mph 17.3 mph N/A   Overcast
1:13 AM 5.0 °F -11.6 °F 1.4 °F 85% 29.91 in 10.0 mi NW 12.7 mph 18.4 mph N/A   Overcast
1:33 AM 5.0 °F -9.1 °F 1.4 °F 85% 29.91 in 10.0 mi NW 9.2 mph - N/A   Overcast
1:53 AM 6.8 °F -9.3 °F 1.4 °F 79% 29.92 in 10.0 mi NW 12.7 mph 16.1 mph N/A   Overcast
2:13 AM 6.8 °F -8.6 °F 1.4 °F 79% 29.92 in 10.0 mi NW 11.5 mph 16.1 mph N/A   Overcast
2:33 AM 5.0 °F -11.6 °F 1.4 °F 85% 29.93 in 10.0 mi NW 12.7 mph 17.3 mph N/A   Overcast
2:53 AM 6.8 °F -8.6 °F 1.4 °F 79% 29.93 in 10.0 mi NW 11.5 mph 17.3 mph N/A   Overcast
3:13 AM 6.8 °F -8.6 °F 1.4 °F 79% 29.94 in 10.0 mi NW 11.5 mph 18.4 mph N/A   Overcast
3:33 AM 6.8 °F -9.3 °F 1.4 °F 79% 29.94 in 10.0 mi NW 12.7 mph 17.3 mph N/A   Overcast
3:53 AM 5.0 °F -11.6 °F 1.4 °F 85% 29.94 in 10.0 mi NW 12.7 mph 18.4 mph N/A   Overcast
4:13 AM 5.0 °F -10.8 °F 1.4 °F 85% 29.94 in 10.0 mi NW 11.5 mph 17.3 mph N/A   Overcast
4:33 AM 3.2 °F -13.9 °F 1.4 °F 92% 29.94 in 10.0 mi NW 12.7 mph - N/A   Overcast
4:53 AM 3.2 °F -13.1 °F -0.4 °F 85% 29.95 in 10.0 mi NW 11.5 mph - N/A   Overcast
5:13 AM 3.2 °F -13.1 °F -0.4 °F 85% 29.95 in 10.0 mi NW 11.5 mph - N/A   Overcast
5:33 AM 3.2 °F -13.1 °F -0.4 °F 85% 29.96 in 10.0 mi NW 11.5 mph - N/A   Overcast
6:13 AM 1.4 °F -13.5 °F -0.4 °F 92% 29.96 in 10.0 mi NW 9.2 mph - N/A   Overcast
6:33 AM 1.4 °F -11.3 °F -0.4 °F 92% 29.97 in 10.0 mi NW 6.9 mph - N/A   Overcast
6:53 AM 1.4 °F -12.5 °F -0.4 °F 92% 29.98 in 10.0 mi NW 8.1 mph - N/A   Overcast
7:13 AM 1.4 °F -11.3 °F -0.4 °F 92% 29.98 in 10.0 mi WNW 6.9 mph - N/A   Overcast
7:33 AM 1.4 °F -13.5 °F -2.2 °F 85% 29.98 in 10.0 mi NW 9.2 mph - N/A   Overcast
7:53 AM 1.4 °F -12.5 °F -2.2 °F 85% 29.98 in 10.0 mi NW 8.1 mph - N/A   Overcast
8:13 AM 1.4 °F -12.5 °F -2.2 °F 85% 29.98 in 10.0 mi NW 8.1 mph - N/A   Overcast
8:33 AM 1.4 °F -9.9 °F -2.2 °F 85% 29.98 in 10.0 mi NNW 5.8 mph - N/A   Overcast
8:53 AM 1.4 °F -8.3 °F -2.2 °F 85% 29.98 in 10.0 mi NW 4.6 mph - N/A   Overcast
9:13 AM 1.4 °F -11.3 °F -2.2 °F 85% 29.99 in 10.0 mi WNW 6.9 mph - N/A   Overcast
9:33 AM 1.4 °F -8.3 °F -0.4 °F 92% 29.99 in 10.0 mi North 4.6 mph - N/A   Overcast
9:53 AM 3.2 °F -4.2 °F -0.4 °F 85% 29.99 in 10.0 mi NNW 3.5 mph - N/A   Overcast
10:13 AM 3.2 °F -4.2 °F -0.4 °F 85% 29.98 in 10.0 mi NNW 3.5 mph - N/A   Overcast
10:33 AM 3.2 °F -4.2 °F -0.4 °F 85% 29.99 in 10.0 mi NNW 3.5 mph - N/A   Overcast
10:53 AM 3.2 °F -4.2 °F -0.4 °F 85% 29.98 in 10.0 mi North 3.5 mph - N/A   Overcast
11:13 AM 3.2 °F - -0.4 °F 85% 29.98 in 10.0 mi Calm Calm - N/A   Overcast
11:33 AM 3.2 °F -4.2 °F -0.4 °F 85% 29.98 in 10.0 mi WNW 3.5 mph - N/A   Overcast
11:53 AM 3.2 °F -6.2 °F -0.4 °F 85% 29.98 in 10.0 mi West 4.6 mph - N/A   Overcast
12:13 PM 5.0 °F -4.1 °F -0.4 °F 78% 29.98 in 10.0 mi WNW 4.6 mph - N/A   Mostly Cloudy
12:33 PM 6.8 °F -3.5 °F 1.4 °F 79% 29.97 in 10.0 mi WNW 5.8 mph - N/A   Scattered Clouds
12:53 PM 6.8 °F -2.0 °F -0.4 °F 72% 29.96 in 10.0 mi West 4.6 mph - N/A   Scattered Clouds
1:13 PM 6.8 °F -3.5 °F 1.4 °F 79% 29.96 in 10.0 mi WNW 5.8 mph - N/A   Clear
1:33 PM 6.8 °F -2.0 °F 1.4 °F 79% 29.95 in 10.0 mi NW 4.6 mph - N/A   Clear
1:53 PM 6.8 °F -2.0 °F 1.4 °F 79% 29.95 in 10.0 mi West 4.6 mph - N/A   Clear
2:13 PM 8.6 °F 0.1 °F 1.4 °F 73% 29.94 in 10.0 mi NW 4.6 mph - N/A   Clear
2:33 PM 8.6 °F 0.1 °F 1.4 °F 73% 29.95 in 10.0 mi West 4.6 mph - N/A   Clear
2:53 PM 8.6 °F -1.3 °F 1.4 °F 73% 29.95 in 10.0 mi WNW 5.8 mph - N/A   Clear
3:13 PM 8.6 °F 2.0 °F 1.4 °F 73% 29.95 in 10.0 mi West 3.5 mph - N/A   Clear
3:33 PM 10.4 °F - 1.4 °F 67% 29.96 in 10.0 mi Calm Calm - N/A   Clear
3:53 PM 10.4 °F 4.0 °F 1.4 °F 67% 29.96 in 10.0 mi West 3.5 mph - N/A   Clear
4:12 PM 10.4 °F 4.0 °F 1.4 °F 67% 29.96 in 10.0 mi West 3.5 mph - N/A   Clear
4:33 PM 8.6 °F - -0.4 °F 67% 29.96 in 10.0 mi Calm Calm - N/A   Clear
4:53 PM 8.6 °F 2.0 °F 1.4 °F 73% 29.96 in 10.0 mi West 3.5 mph - N/A   Clear
5:13 PM 6.8 °F - 1.4 °F 79% 29.96 in 10.0 mi Calm Calm - N/A   Clear
5:33 PM 6.8 °F - 1.4 °F 79% 29.96 in 10.0 mi Calm Calm - N/A   Clear
5:53 PM 6.8 °F - 1.4 °F 79% 29.96 in 10.0 mi Calm Calm - N/A   Clear
6:12 PM 6.8 °F - 1.4 °F 79% 29.96 in 10.0 mi Calm Calm - N/A   Clear
6:33 PM 8.6 °F - 3.2 °F 79% 29.96 in 10.0 mi Calm Calm - N/A   Clear
6:53 PM 8.6 °F - 1.4 °F 73% 29.96 in 10.0 mi Calm Calm - N/A   Clear
7:13 PM 8.6 °F - 3.2 °F 79% 29.96 in 10.0 mi Calm Calm - N/A   Clear
7:33 PM 8.6 °F - 3.2 °F 79% 29.96 in 10.0 mi Calm Calm - N/A   Clear
7:53 PM 6.8 °F - 3.2 °F 85% 29.96 in 10.0 mi Calm Calm - N/A   Clear
8:12 PM 8.6 °F - 3.2 °F 79% 29.96 in 10.0 mi Calm Calm - N/A   Clear
8:53 PM 6.8 °F - 3.2 °F 85% 29.96 in 10.0 mi Calm Calm - N/A   Scattered Clouds
9:13 PM 8.6 °F 2.0 °F 3.2 °F 79% 29.96 in 10.0 mi East 3.5 mph - N/A   Mostly Cloudy
9:33 PM 8.6 °F - 3.2 °F 79% 29.96 in 10.0 mi Calm Calm - N/A   Overcast
9:53 PM 8.6 °F - 3.2 °F 79% 29.96 in 10.0 mi Calm Calm - N/A   Overcast
10:33 PM 8.6 °F - 3.2 °F 79% 29.96 in 10.0 mi Calm Calm - N/A   Scattered Clouds
10:53 PM 6.8 °F - 3.2 °F 85% 29.96 in 10.0 mi Calm Calm - N/A   Clear
11:33 PM 6.8 °F -0.1 °F 3.2 °F 85% 29.95 in 10.0 mi ESE 3.5 mph - N/A   Mostly Cloudy
11:53 PM 6.8 °F - 3.2 °F 85% 29.95 in 10.0 mi Calm Calm - N/A   Scattered Clouds